SL-12 R/B(AUX MOTOR)

Satellite information

Favourite Embed

Satellite Type and Status

ROCKET BODYIN ORBIT

Key statistics

Satellite SL-12 R/B(AUX MOTOR) at a glance.

Uptime

6564

Days in orbit

Revolutions

≈ 4.3

Per day

Orbit

HEO

HEO

Inclination

65.2

Latest

Satellite identification and parameters

Extended collection of information and parameters for SL-12 R/B(AUX MOTOR).

Object identification

Identified? True

Debris? False

Object name: SL-12 R/B(AUX MOTOR)

International designator: 2007-065G

Object number (NORAD): 32399

Object ID (CCSDS): 32399

Country: COMMONWEALTH OF INDEPENDENT STATES (CIS)

Current information (Y/N): Y

RCS size: MEDIUM

Orbital parameters

Period: 338.821 minutes

Inclination: 65.2003 deg

SMA: 16099.318 km

Apoapsis: 18683.25 km

Periapsis: 759.116 km

RAAN: 202.8033 deg

Eccentricy: 0.5566737

Argument of periapsis: 262.0369 deg

Mean anomaly: 34.7043 deg

Mean motion: 4.25002558 rev/day

Mean motion (dot): 0.00000075 rev/day2

B* drag term: 0.000095116 1/REarth

Two-line elements (TLE)

Creation date: Dec. 10, 2025, 3:26 p.m.

Reference frame: TEME

Reference center: EARTH

Epoch: Dec. 10, 2025, 1:59 a.m. UTC

TLE line 0: 0 SL-12 R/B(AUX MOTOR)

TLE line 1: 1 32399U 07065G 25344.08304468 .00000075 00000-0 95116-4 0 9993

TLE line 2: 2 32399 65.2003 202.8033 5566737 262.0369 34.7043 4.25002558277917

Live tracking on map

Real-time ground track for satellite SL-12 R/B(AUX MOTOR).

In-orbit conjunctions

There are no conjunctions computed for SL-12 R/B(AUX MOTOR), at the moment. Check back to stay up to date, as we update our databases every day.

Go to all conjunctions

Associated space launch

GLONASS navigation satellites

SL-12 R/B(AUX MOTOR) was lifted into orbit during the mission ‘Proton-M | Uragan-M 12 to 14’, on board a Proton-M space rocket.

The launch took place on Dec. 25, 2007, 7:32 p.m. from 81/24 (81P).

For more information about the launch, click the button.

Launch to space Proton-M | Uragan-M 12 to 14
Proton-M | Uragan-M 12 to 14

Agency: N/A

Status: Launch Successful

Launch date: Dec. 25, 2007, 7:32 p.m. UTC

Rocket: Proton-M

Launch pad: 81/24 (81P)

Location: Baikonur Cosmodrome, Republic of Kazakhstan

...

Latest news about this satellite

There are no fresh news available about this satellite. Check back as we update our databases every day.


Newsletter sign-up

Weekly statistics, charts and insights to help you stay on top of the space industry.